VCC A (44428 NORAD) Tracking and Keplerian Element Data

This shows tracking and keplerian element data for the satellite.

Feedback or suggestion? Click here.




ElementValue
Catalog44428
NameVCC A
Epoch Orbit1660
Epoch Day290.88739346
Epoch Year2019
RAAN111.5043
Inclination51.6407
Eccentricity0.0003792
Argument of Perigee146.6234
Mean Anonmoly213.4995
Mean Motion15.52985952
Decay Rate6.845E-05
L11 44428U 98067QN 19290.88739346 .00006845 00000-0 11512-3 0 9997
L22 44428 51.6407 111.5043 0003792 146.6234 213.4995 15.52985952 16606

Live tracking and technical data element details for VCC A (NORAD 44428). VCC A can be tracked NOW for your location showing map with azimuth and elevation plus other details from your city location.

Track the satellite on the map from your city or location and see movement details for azimuth, elevation, latitude, longitude, range, height, and movement on the map or in text.







IsCatalogInMostPopularTable: catalog: 44428, numindb: 18
Update: records affected: 1



GetName: 44428 VCC A

Hit Count: updated at: Wed, 23 Oct 2019 00:38:36 GMT